Location: Doingt
(49.9211°N, 2.9677°E)
Time: 16:22:01
(UTC+00:00)

Daily predictions for brighter satellites

Satellite Brightness Start Highest point End
(mag) Time Altitude Azimuth Time Altitude Azimuth Time Altitude Azimuth
Cosmos 1703 Rocket 3.6 20:19:29 10° S 20:23:49 85° W 20:28:11 10° N
STARLINK-1107 3.9 20:19:46 10° WNW 20:23:50 57° SSW 20:27:54 10° SE
STARLINK-1212 2.8 20:21:50 10° WSW 20:24:56 76° SSE 20:28:03 10° ENE
STARLINK-1234 2.9 20:22:02 10° WSW 20:25:13 88° NW 20:28:26 10° ENE
STARLINK-1105 2.8 20:22:17 10° WSW 20:25:23 76° SSE 20:28:30 10° ENE
ERS-1 Rocket 3.9 20:21:01 10° SE 20:25:33 35° ENE 20:30:07 10° N
Cosmos 2279 Rocket 4.4 20:19:59 10° N 20:26:03 48° ENE 20:32:01 10° SSE
STARLINK-1091 3.9 20:21:58 10° WNW 20:26:06 69° NNE 20:30:15 10° E
STARLINK-1247 2.8 20:23:10 10° WSW 20:26:17 77° SSE 20:29:25 10° ENE
Cosmos 1954 Rocket 4.1 20:21:09 10° NNW 20:26:25 71° ENE 20:31:42 10° SSE
Meteor 1-18 Rocket 4.2 20:21:04 10° S 20:26:38 82° E 20:32:20 10° NNE
STARLINK-1227 2.8 20:23:38 10° WSW 20:26:43 78° SSE 20:29:50 10° ENE
STARLINK-1232 3.9 20:23:37 10° SW 20:27:36 47° SSE 20:31:36 10° ENE
STARLINK-1226 2.8 20:24:31 10° WSW 20:27:38 79° SSE 20:30:46 10° ENE
STARLINK-1097 4.4 20:24:05 10° W 20:28:10 54° N 20:32:15 10° ENE
STARLINK-1215 2.8 20:25:25 10° WSW 20:28:31 80° SSE 20:31:39 10° ENE
STARLINK-1066 4.0 20:24:47 10° WNW 20:28:50 53° SSW 20:32:52 10° SE
Okean 2 Rocket 3.5 20:25:07 10° N 20:29:27 48° ENE 20:33:43 10° SSE
STARLINK-1217 2.8 20:27:13 10° WSW 20:30:20 81° SSE 20:33:28 10° ENE
Terra 3.3 20:26:52 10° ESE 20:30:42 25° ENE 20:34:34 10° N
STARLINK-1072 3.9 20:26:58 10° WNW 20:31:06 72° NNE 20:35:15 10° ESE
STARLINK-1229 2.8 20:28:06 10° WSW 20:31:13 82° SSE 20:34:20 10° ENE
STARLINK-1270 2.8 20:29:01 10° WSW 20:32:07 83° SSE 20:35:15 10° ENE
STARLINK-1208 3.8 20:28:33 10° SW 20:32:34 50° SSE 20:36:36 10° ENE
STARLINK-1099 4.4 20:29:06 10° WNW 20:33:10 54° N 20:37:16 10° E
STARLINK-1081 4.1 20:29:45 10° WNW 20:33:47 50° SSW 20:37:47 10° SE
STARLINK-1189 2.8 20:30:47 10° WSW 20:33:55 85° SSE 20:37:03 10° ENE
STARLINK-1209 3.1 20:31:17 10° WSW 20:34:30 77° NNW 20:37:45 10° ENE
STARLINK-1188 2.8 20:31:43 10° WSW 20:34:51 86° SSE 20:37:59 10° ENE
STARLINK-1235 3.0 20:32:24 10° WSW 20:35:31 81° NNW 20:38:39 10° ENE
Lacrosse 5 2.0 20:30:28 10° NW 20:35:33 74° NNE 20:40:37 10° ESE
STARLINK-1187 2.9 20:32:49 10° WSW 20:35:55 86° NNW 20:39:02 10° ENE
STARLINK-1096 3.8 20:31:57 10° WNW 20:36:07 74° NNE 20:40:15 10° ESE
Spot 2 Rocket 3.5 20:31:26 10° SSE 20:36:27 76° ENE 20:41:31 10° NNW
STARLINK-1191 2.8 20:34:10 10° WSW 20:37:17 89° SSE 20:40:24 10° ENE
STARLINK-1271 3.7 20:33:29 10° SW 20:37:31 54° SSE 20:41:34 10° ENE
Meteor 1-12 Rocket 4.4 20:32:03 10° N 20:37:41 61° ENE 20:43:17 10° SSE
COSMOS 2406 3.5 20:31:57 10° NNW 20:37:44 73° WSW 20:43:27 10° SSE
STARLINK-1104 4.4 20:34:04 10° WNW 20:38:08 54° N 20:42:14 10° E
STARLINK-1221 2.8 20:35:04 10° WSW 20:38:10 90° SSE 20:41:17 10° ENE
STARLINK-1070 4.2 20:34:44 10° WNW 20:38:43 47° SSW 20:42:38 10° SE
STARLINK-1222 2.8 20:35:57 10° WSW 20:39:04 89° NNE 20:42:12 10° ENE
Cosmos 1544 3.4 20:35:41 10° NNW 20:39:19 65° W 20:42:53 10° S
STARLINK-1214 2.8 20:36:53 10° WSW 20:40:00 88° NNW 20:43:08 10° ENE
Cosmos 676 Rocket 4.1 20:35:22 10° NNW 20:40:39 88° WSW 20:45:56 10° SSE
STARLINK-1079 3.8 20:36:57 10° WNW 20:41:06 77° NNE 20:45:15 10° ESE
SAR-Lupe-2 3.9 20:38:25 10° NNE 20:41:55 46° E 20:45:22 10° S
MetOp-B 4.2 20:36:59 10° SSE 20:42:21 83° WSW 20:47:45 10° NNW
STARLINK-1154 3.7 20:38:26 10° SW 20:42:30 57° SSE 20:46:34 10° ENE
Cosmos 2151 Rocket 4.1 20:38:33 10° N 20:42:56 47° ENE 20:47:15 10° SSE
STARLINK-1144 4.4 20:39:04 10° WNW 20:43:09 55° N 20:47:15 10° E
Cosmos 1634 Rocket 4.1 20:37:04 10° N 20:43:25 87° W 20:49:46 10° S
Meteor 2-4 Rocket 3.7 20:38:11 10° S 20:43:29 61° E 20:48:45 10° NNE
STARLINK-1069 4.3 20:39:44 10° WNW 20:43:41 43° SW 20:47:25 11° SE
Cosmos 371 Rocket 4.1 20:40:05 10° SSE 20:44:21 32° ESE 20:48:39 10° NE
SL-4 R/B 1.7 20:42:15 10° NNW 20:45:26 53° NE 20:48:05 12° SE
STARLINK-1116 3.7 20:41:55 10° WNW 20:46:05 80° NNE 20:50:14 10° ESE
STARLINK-1197 3.6 20:43:22 10° SW 20:47:27 61° SSE 20:51:33 10° ENE
Cosmos 389 Rocket 4.3 20:44:20 10° SW 20:47:31 34° WNW 20:50:46 10° N
STARLINK-1228 3.5 20:44:39 10° W 20:48:04 69° NNW 20:51:29 10° ENE
STARLINK-1103 4.3 20:44:05 10° WNW 20:48:10 55° N 20:52:15 10° E
Iridium 51 4.5 20:44:17 10° S 20:48:18 73° W 20:52:01 10° N
STARLINK-1085 4.4 20:44:45 10° WNW 20:48:39 41° SW 20:52:13 12° SSE
Cosmos 2056 Rocket 3.5 20:43:46 10° SSW 20:48:53 90° N 20:54:02 10° NNE
STARLINK-1198 3.6 20:48:20 10° SW 20:52:26 65° SSE 20:56:33 10° ENE
STARLINK-1101 4.3 20:49:04 10° WNW 20:53:10 55° N 20:57:15 10° E
STARLINK-1086 4.5 20:49:44 10° WNW 20:53:36 38° SW 20:56:59 13° SSE
Crew Dragon -0.2 20:53:51 10° WNW 20:55:55 79° SSW 20:57:34 15° ESE
STARLINK-1094 3.6 20:51:54 10° WNW 20:56:03 87° NNE 21:00:13 10° ESE
STARLINK-1199 3.5 20:53:16 10° SW 20:57:22 69° SSE 21:01:31 10° ENE
STARLINK-1102 4.3 20:54:03 10° WNW 20:58:09 56° N 21:02:15 10° E
NOSS 2-3 (E) 3.9 20:56:37 10° SW 21:00:59 80° NW 21:06:19 10° NE
STARLINK-1117 3.6 20:56:52 10° WNW 21:01:02 90° SW 21:05:01 11° ESE
IGS 5A 3.6 20:58:00 10° S 21:02:09 76° WSW 21:06:20 10° NNW
STARLINK-1210 3.5 20:58:15 10° WSW 21:02:22 73° SSE 21:06:31 10° ENE
STARLINK-1111 4.3 20:59:04 10° WNW 21:03:10 57° N 21:07:16 10° E
CARTOSAT-1 3.7 21:01:34 13° SSE 21:05:22 65° ENE 21:09:41 10° N
STARLINK-1078 3.6 21:01:51 10° WNW 21:06:01 86° SSW 21:09:48 12° ESE
BREEZE M DEB (TANK) 3.6 21:01:40 10° SW 21:06:49 30° SSE 21:09:13 10° E
STARLINK-1219 3.5 21:03:12 10° WSW 21:07:19 77° SSE 21:11:29 10° ENE
Okean 3 3.5 21:03:46 10° S 21:08:04 85° W 21:12:25 10° N
STARLINK-1073 4.2 21:04:03 10° WNW 21:08:09 58° N 21:12:15 10° E
STARLINK-1192 4.4 21:06:22 10° SSW 21:09:56 28° SE 21:13:31 10° E
STARLINK-1108 3.6 21:06:50 10° WNW 21:10:59 82° SSW 21:14:35 14° ESE
Cosmos 2082 Rocket 2.2 21:05:26 10° NNW 21:11:13 87° ENE 21:16:03 15° SSE
STARLINK-1211 3.5 21:08:10 10° WSW 21:12:18 81° SSE 21:16:29 10° ENE
STARLINK-1121 4.2 21:09:02 10° WNW 21:13:09 59° N 21:17:15 10° E
SPOT 5 3.1 21:10:01 14° SSE 21:14:32 76° ENE 21:19:53 10° NNW
STARLINK-1244 4.3 21:11:14 10° SSW 21:14:52 30° SE 21:18:32 10° E
CZ-2C R/B 4.5 21:10:14 10° N 21:15:15 35° WNW 21:20:16 10° SW
Cosmos 1833 Rocket 3.1 21:09:57 10° NW 21:15:28 58° WSW 21:20:27 13° S
STARLINK-1071 3.6 21:11:49 10° WNW 21:15:58 78° SSW 21:19:22 15° ESE
STARLINK-1245 3.5 21:13:08 10° WSW 21:17:17 85° SSE 21:21:27 10° ENE
Cosmos 1461 4.2 21:15:49 17° SSE 21:17:34 21° ESE 21:20:51 10° ENE
STARLINK-1106 4.1 21:14:01 10° WNW 21:18:08 60° N 21:22:15 10° E
Cosmos 1452 Rocket 3.5 21:14:27 10° S 21:19:40 64° ESE 21:24:55 10° NNE
STARLINK-1138 4.3 21:16:06 10° SSW 21:19:48 33° SE 21:23:32 10° ENE
STARLINK-1110 3.6 21:15:54 10° WNW 21:20:03 75° SSW 21:23:17 16° ESE
NOSS 2-3 (D) 4.3 21:16:44 10° SW 21:21:06 63° NW 21:26:26 10° NE
Cosmos 1300 Rocket 4.0 21:17:49 10° NNW 21:22:13 60° W 21:26:23 11° S
STARLINK-1233 3.6 21:18:06 10° WSW 21:22:16 89° SSE 21:26:26 10° ENE
STARLINK-1112 4.1 21:19:02 10° WNW 21:23:09 61° N 21:27:16 10° E
USA 215 3.7 21:17:45 10° E 21:24:12 64° NNE 21:30:41 10° WNW
Cosmos 1420 Rocket 4.0 21:19:10 10° SSW 21:24:23 86° WNW 21:29:37 10° NNE
STARLINK-1143 4.2 21:20:59 10° SSW 21:24:45 35° SE 21:28:33 10° ENE
Aureole 2 Rocket 3.6 21:24:15 20° SE 21:24:58 22° ESE 21:27:26 10° NE
STARLINK-1124 3.6 21:21:46 10° WNW 21:25:54 70° SSW 21:28:54 18° SE
STARLINK-1204 3.6 21:23:06 10° WSW 21:27:15 88° NNW 21:31:26 10° ENE
Cosmos 2369 Rocket 4.1 21:26:14 11° ESE 21:27:58 13° E 21:30:19 10° ENE
STARLINK-1128 4.1 21:24:01 10° WNW 21:28:09 63° NNE 21:32:16 10° E
Cosmos 304 Rocket 4.4 21:24:48 16° SSE 21:28:09 38° ESE 21:32:35 10° NE
STARLINK-1203 4.1 21:24:30 10° SSW 21:28:24 38° SE 21:32:18 10° ENE
Cosmos 1805 4.1 21:25:37 10° N 21:29:17 37° ENE 21:31:34 19° SE
STARLINK-1241 4.1 21:25:53 10° SSW 21:29:43 37° SE 21:33:34 10° ENE
STARLINK-1122 3.6 21:26:45 10° WNW 21:30:53 66° SSW 21:33:41 19° SE
Cosmos 1943 Rocket 3.7 21:28:55 15° SE 21:30:59 18° E 21:34:40 10° ENE
SL-8 R/B 3.6 21:26:39 10° W 21:31:28 76° S 21:36:17 10° E
STARLINK-1238 3.6 21:28:06 10° WSW 21:32:15 84° NNW 21:36:25 10° ENE
STARLINK-1113 4.0 21:29:00 10° WNW 21:33:08 64° NNE 21:37:15 10° E
STARLINK-1239 4.0 21:30:47 10° SW 21:34:40 40° SE 21:38:34 10° ENE
Cosmos 1066 Rocket 4.2 21:31:10 15° S 21:35:35 59° E 21:40:52 10° NNE
STARLINK-1126 3.7 21:31:47 10° WNW 21:35:53 62° SSW 21:38:31 21° SE
ERBS 2.1 21:32:40 10° SW 21:35:58 76° SE 21:39:17 10° ENE
STARLINK-1201 3.7 21:33:05 10° WSW 21:37:14 80° NNW 21:41:24 10° ENE
Cosmos 332 Rocket 3.8 21:32:55 10° SSW 21:37:48 69° ESE 21:42:41 10° NNE
STARLINK-1119 3.9 21:33:59 10° WNW 21:38:07 66° NNE 21:42:15 10° E
STARLINK-1240 3.9 21:35:42 10° SW 21:39:38 43° SE 21:43:35 10° ENE
ATLAS 3B R/B 4.4 21:34:11 10° NW 21:39:58 29° NNE 21:45:52 10° ENE
Cosmos 1674 Rocket 3.5 21:36:52 14° S 21:40:37 87° ESE 21:45:03 10° N
STARLINK-1082 3.8 21:36:43 10° WNW 21:40:48 58° SSW 21:43:15 22° SE
NOSS 3-1 (A) 4.4 21:35:56 10° WSW 21:41:31 51° NW 21:48:08 10° NE
Meteor 1-15 Rocket 4.4 21:35:40 10° NNW 21:41:38 87° W 21:46:14 18° S
STARLINK-1206 3.8 21:38:03 10° WSW 21:42:12 78° NNW 21:46:22 10° ENE
CENTAUR R/B 4.0 21:34:57 10° NW 21:42:16 46° NNE 21:50:27 10° ESE
STARLINK-1114 3.9 21:38:57 10° WNW 21:43:06 68° NNE 21:47:14 10° E
STARLINK-1216 3.8 21:40:37 10° SW 21:44:35 46° SE 21:48:34 10° ENE
STARLINK-1100 3.8 21:41:43 10° WNW 21:45:47 55° SSW 21:48:02 24° SE
NOSS 2-2 (E) 4.2 21:45:11 24° SE 21:45:55 26° ESE 21:49:15 10° ENE
Cosmos 2278 Rocket 2.8 21:41:05 10° SW 21:46:41 59° WNW 21:52:20 10° NNE
Cosmos 1378 Rocket 3.5 21:43:25 17° S 21:46:47 78° E 21:51:12 10° NNE
STARLINK-1205 3.8 21:43:03 10° WSW 21:47:11 75° NNW 21:51:21 10° ENE
STARLINK-1130 (DARKSAT) 3.8 21:43:57 10° WNW 21:48:06 71° NNE 21:52:04 11° E
NOSS 8 (E) 4.3 21:47:09 18° SSW 21:49:16 50° SE 21:52:15 10° NE
STARLINK-1237 3.7 21:45:32 10° SW 21:49:32 49° SSE 21:53:33 10° ENE
deb Kosmos-1763 3.9 21:47:04 10° NNW 21:50:41 85° ENE 21:52:28 28° SSE
STARLINK-1083 3.9 21:46:41 10° WNW 21:50:43 51° SSW 21:52:48 25° SSE
Cosmos 1741 Rocket 4.3 21:45:51 10° NNW 21:51:00 61° WSW 21:54:36 20° S
STARLINK-1218 3.9 21:48:01 10° WSW 21:52:10 72° NNW 21:56:19 10° ENE
Resurs 01 Rocket 4.4 21:50:56 10° WSW 21:52:29 12° W 21:54:02 10° WNW
STARLINK-1084 3.8 21:48:55 10° WNW 21:53:05 73° NNE 21:56:49 12° ESE
STARLINK-1202 3.7 21:50:29 10° SW 21:54:30 53° SSE 21:58:34 10° ENE
STARLINK-1125 4.0 21:51:42 10° WNW 21:55:42 48° SSW 21:57:35 27° SSE
Abrixas rocket 1.9 21:53:18 10° W 21:56:13 58° S 21:57:11 35° SE
Cosmos 1437 Rocket 3.2 21:53:11 12° SSW 21:56:33 57° WNW 22:00:20 10° N
STARLINK-1254 3.9 21:53:01 10° W 21:57:09 70° NNW 22:01:18 10° ENE
STARLINK-1098 3.7 21:53:55 10° WNW 21:58:05 76° NNE 22:01:37 14° ESE
Okean 2 4.0 21:56:17 25° SE 21:58:06 39° E 22:01:59 10° NNE
SeaSat 1 3.0 21:54:22 10° NE 21:59:00 38° ESE 22:01:27 23° SSE
Cosmos 1975 Rocket 3.8 21:57:35 24° SE 21:59:39 39° E 22:03:47 10° NNE
STARLINK-1109 4.1 21:56:41 10° WNW 22:00:39 45° SW 22:02:22 28° SSE
STARLINK-1212 4.0 21:57:53 10° W 22:00:54 46° N 22:03:55 10° ENE
ISS -2.9 21:57:59 10° W 22:01:04 34° SSW 22:01:47 30° S
STARLINK-1105 4.0 21:58:20 10° W 22:01:21 46° N 22:04:23 10° ENE
STARLINK-1234 4.0 21:58:20 10° WNW 22:01:26 46° N 22:04:33 10° ENE
STARLINK-1231 4.0 21:58:01 10° W 22:02:10 67° NNW 22:06:18 10° ENE
STARLINK-1247 4.0 21:59:13 10° W 22:02:16 46° N 22:05:17 10° ENE
STARLINK-1227 4.0 21:59:40 10° W 22:02:41 46° N 22:05:43 10° ENE
STARLINK-1123 3.7 21:58:54 10° WNW 22:03:04 79° NNE 22:06:24 15° ESE
STARLINK-1226 4.0 22:00:35 10° W 22:03:36 46° N 22:06:39 10° ENE
ERS-1 Rocket 4.1 22:00:14 13° SSW 22:04:20 37° W 22:09:01 10° NNW
STARLINK-1246 3.6 22:00:21 10° SW 22:04:25 60° SSE 22:08:31 10° ENE
STARLINK-1215 4.0 22:01:29 10° W 22:04:30 46° N 22:07:32 10° ENE
STARLINK-1091 4.2 22:01:40 10° WNW 22:05:36 42° SW 22:07:09 29° SSE
Nadezhda 4 Rocket 4.0 22:00:38 14° S 22:06:01 83° W 22:12:12 10° N
STARLINK-1217 4.0 22:03:18 10° W 22:06:20 45° N 22:09:21 10° ENE
STARLINK-1232 4.0 22:03:01 10° W 22:07:09 65° NNW 22:11:17 10° ENE
STARLINK-1229 4.0 22:04:11 10° W 22:07:12 45° N 22:10:14 10° ENE
STARLINK-1097 3.6 22:03:52 10° WNW 22:08:02 82° NNE 22:11:10 17° ESE
STARLINK-1270 4.0 22:05:06 10° W 22:08:07 45° N 22:11:10 10° ENE
Terra 2.4 22:04:56 19° S 22:08:11 50° W 22:12:50 10° NNW
NOSS 2-2 (C) 3.8 22:08:29 31° SE 22:09:07 34° ESE 22:12:43 10° NE
STARLINK-1224 3.5 22:05:18 10° SW 22:09:24 64° SSE 22:13:31 10° ENE
STARLINK-1189 4.0 22:06:53 10° WNW 22:09:54 45° N 22:12:57 10° ENE
STARLINK-1072 4.3 22:06:40 10° WNW 22:10:33 39° SW 22:11:56 29° S
ATLAS 2AS CENTAUR R/B 4.3 22:08:00 17° SE 22:10:44 20° ESE 22:16:10 10° ENE
STARLINK-1188 4.0 22:07:49 10° WNW 22:10:51 45° N 22:13:52 10° ENE
STARLINK-1209 4.0 22:07:53 10° WNW 22:11:01 46° N 22:14:10 10° ENE
STARLINK-1235 4.0 22:08:33 10° WNW 22:11:34 44° N 22:14:34 10° ENE
STARLINK-1187 4.0 22:08:57 10° WNW 22:11:56 44° N 22:14:56 10° ENE
STARLINK-1208 4.1 22:08:01 10° W 22:12:09 64° NNW 22:16:16 10° ENE
Cosmos 1242 Rocket 4.0 22:11:39 22° ESE 22:12:23 23° E 22:15:20 10° NE
Cosmos 1110 Rocket 3.9 22:08:57 18° SSW 22:12:47 73° ESE 22:17:57 10° NNE
STARLINK-1099 3.6 22:08:52 10° WNW 22:13:02 85° NNE 22:15:57 19° ESE
STARLINK-1191 4.0 22:10:16 10° WNW 22:13:17 45° N 22:16:18 10° ENE
STARLINK-1221 4.0 22:11:10 10° WNW 22:14:11 45° N 22:17:12 10° ENE
STARLINK-1225 3.5 22:10:15 10° SW 22:14:22 68° SSE 22:18:29 10° ENE
NOSS 3-2 (A) 4.1 22:07:16 10° NW 22:14:36 77° NE 22:21:23 17° SE
STARLINK-1222 4.0 22:12:05 10° WNW 22:15:05 45° N 22:18:06 10° ENE
STARLINK-1096 4.4 22:11:41 10° WNW 22:15:31 36° SW 22:16:43 29° S
STARLINK-1214 4.0 22:13:00 10° WNW 22:16:01 45° N 22:19:02 10° ENE
BREEZE-M DEB (TANK) 2.8 22:12:02 10° W 22:16:10 86° S 22:19:54 10° E
STARLINK-1271 4.1 22:13:00 10° W 22:17:07 62° N 22:21:15 10° ENE
Cosmos 1766 3.3 22:13:47 10° NNW 22:17:46 76° W 22:19:37 30° S
STARLINK-1104 3.6 22:13:48 10° WNW 22:17:58 89° N 22:20:42 21° ESE
SL-4 R/B 3.7 22:16:40 10° W 22:18:03 12° WSW 22:18:54 11° SW
Lacrosse 5 2.9 22:13:48 10° WNW 22:18:13 30° SW 22:20:16 23° S
STARLINK-1230 3.5 22:15:13 10° WSW 22:19:21 72° SSE 22:23:29 10° ENE
BREEZE-M DEB (TANK) 3.6 22:05:03 10° WSW 22:19:22 64° SSE 22:23:12 10° E
Okean 1 Rocket 4.0 22:15:34 10° NNW 22:19:48 42° W 22:22:37 19° SSW
Spot 4 4.1 22:17:50 26° SE 22:20:29 62° ENE 22:25:19 10° N
STARLINK-1079 4.5 22:16:43 10° WNW 22:20:29 34° SW 22:21:31 29° S
Cosmos 1271 Rocket 4.2 22:20:18 21° ESE 22:21:08 22° E 22:24:11 10° NE
STARLINK-1154 4.2 22:18:01 10° W 22:22:07 61° N 22:26:15 10° ENE
STARLINK-1144 3.5 22:18:48 10° WNW 22:22:58 87° SSW 22:25:30 23° ESE
USA 238 DEB 3.9 22:16:04 10° NW 22:23:16 83° NE 22:28:52 19° SE
USA 238 3.9 22:16:10 10° NW 22:23:22 82° NE 22:28:59 19° SE
STARLINK-1243 3.5 22:20:10 10° WSW 22:24:18 76° SSE 22:28:27 10° ENE
Cosmos 1733 3.1 22:21:10 10° NNW 22:25:01 81° W 22:26:32 35° S
STARLINK-1228 4.1 22:21:56 10° WNW 22:25:16 49° N 22:28:36 10° E
EXPRESS MD2 4.1 22:21:32 10° SW 22:25:29 60° SSE 22:33:36 10° ENE
STARLINK-1197 4.2 22:23:00 10° W 22:27:06 59° N 22:31:13 10° ENE
STARLINK-1103 3.5 22:23:48 10° WNW 22:27:57 83° SSW 22:30:17 25° ESE
STARLINK-1236 3.5 22:25:09 10° WSW 22:29:18 80° SSE 22:33:28 10° ENE
Cosmos 1707 4.2 22:28:29 22° ESE 22:29:24 24° E 22:32:35 10° NE
SL-4 R/B 2.3 22:29:44 24° ENE 22:29:44 24° ENE 22:31:26 10° N
Cosmos 1455 Rocket 3.0 22:26:20 10° N 22:30:44 79° E 22:32:37 33° SSE
STARLINK-1198 4.2 22:28:01 10° W 22:32:07 58° N 22:36:14 10° ENE
Cosmos 1953 3.9 22:29:11 10° NNE 22:32:33 25° ENE 22:34:15 19° ESE
Cosmos 1486 Rocket 4.3 22:27:16 10° NNW 22:32:34 61° ENE 22:35:35 25° SE
STARLINK-1101 3.5 22:28:46 10° WNW 22:32:56 79° SSW 22:35:04 28° ESE
Cosmos 1331 Rocket 4.0 22:30:41 18° SSW 22:34:31 85° WNW 22:39:45 10° NNE
Cosmos 1025 Rocket 4.0 22:34:49 26° SE 22:36:07 32° E 22:39:57 10° NNE
STARLINK-1199 4.3 22:33:00 10° W 22:37:05 57° N 22:41:12 10° ENE
STARLINK-1102 3.5 22:33:45 10° WNW 22:37:54 75° SSW 22:39:51 30° SE
STARLINK-1269 3.5 22:35:04 10° WSW 22:39:13 87° SSE 22:43:24 10° ENE
Cosmos 1302 Rocket 4.1 22:37:49 28° S 22:40:30 62° ESE 22:45:45 10° NNE
STARLINK-1210 4.3 22:38:01 10° W 22:42:06 56° N 22:46:12 10° ENE
STARLINK-1111 3.5 22:38:45 10° WNW 22:42:53 71° SSW 22:44:38 33° SE
Cosmos 1758 3.6 22:38:56 10° N 22:42:56 57° ENE 22:44:24 35° SE
STARLINK-1200 3.5 22:40:05 10° WSW 22:44:14 89° NNW 22:48:24 10° ENE
Cosmos 2297 4.0 22:39:28 10° SW 22:45:07 67° WNW 22:50:51 10° NNE
Cosmos 1092 Rocket 4.2 22:41:42 19° SSW 22:46:15 67° WNW 22:52:24 10° N
STARLINK-1219 4.3 22:43:00 10° W 22:47:05 56° N 22:51:11 10° ENE
STARLINK-1073 3.5 22:43:44 10° WNW 22:47:51 67° SSW 22:49:25 36° SE
Cosmos 1900 4.4 22:43:03 10° NW 22:48:03 68° WSW 22:50:18 33° SSE
STARLINK-1192 3.6 22:45:04 10° WSW 22:49:13 85° NNW 22:53:23 10° ENE
Meteor 2-13 Rocket 4.4 22:45:42 25° S 22:49:28 87° E 22:55:41 10° N
Aureole 3 Rocket 4.0 22:45:13 10° N 22:50:35 88° ENE 22:54:52 27° S
STARLINK-1211 4.3 22:48:00 10° W 22:52:06 55° N 22:56:11 10° ENE
STARLINK-1121 3.6 22:48:42 10° WNW 22:52:49 63° SSW 22:54:12 38° SE
STARLINK-1244 3.6 22:50:02 10° WSW 22:54:12 82° NNW 22:58:22 10° ENE
Cosmos 2082 Rocket 4.2 22:50:52 10° WNW 22:54:32 18° W 22:57:54 11° SW
Cosmos 1461 3.5 22:52:09 10° SW 22:56:17 58° NW 23:00:38 10° NE
STARLINK-1245 4.3 22:53:00 10° W 22:57:05 55° N 23:01:11 10° ENE
EO 1 Del DPAF 3.4 22:53:33 10° N 22:57:20 65° WNW 22:58:54 32° SW
STARLINK-1106 3.6 22:53:41 10° WNW 22:57:47 60° SSW 22:58:58 41° SSE
SL-4 R/B 4.2 22:59:59 17° ESE 22:59:59 17° ESE 23:01:54 10° E
Aureole 2 Rocket 4.2 22:56:17 12° WSW 22:58:34 25° WNW 23:01:09 10° N
SL-27 R/B 2.4 22:55:09 10° NNW 22:58:46 74° WSW 22:59:33 50° S
STARLINK-1138 3.7 22:55:01 10° WSW 22:59:10 79° NNW 23:03:20 10° ENE
Cosmos 1536 Rocket 4.0 22:57:54 35° SE 22:59:16 48° E 23:03:27 10° NNE
Cosmos 1470 2.6 22:55:52 10° NNW 22:59:46 83° W 23:00:55 44° S
ATLAS 5 CENTAUR R/B 2.8 23:00:58 23° E 23:00:58 23° E 23:02:06 10° ENE
Thor Agena Rocket 3.8 22:56:35 10° NNE 23:01:52 69° WNW 23:05:15 23° SSW
STARLINK-1233 4.4 22:58:00 10° W 23:02:05 55° N 23:06:10 10° ENE
ALOS 2 2.6 23:01:01 36° SSE 23:02:45 78° ENE 23:07:09 10° NNW
STARLINK-1112 3.7 22:58:42 10° WNW 23:02:46 56° SSW 23:03:46 43° SSE
STARLINK-1143 3.7 23:00:00 10° WSW 23:04:09 76° NNW 23:08:18 10° ENE
Cosmos 1544 Rocket 3.7 23:02:28 10° NNW 23:06:46 62° W 23:08:21 36° SSW
STARLINK-1204 4.4 23:03:00 10° W 23:07:05 54° N 23:11:11 10° ENE
USA 215 3.3 23:03:19 25° SSE 23:07:18 61° SW 23:13:47 10° WNW
ATLAS CENTAUR R/B 3.6 23:06:10 10° NNW 23:07:28 15° NNE 23:09:06 10° ENE
STARLINK-1128 3.8 23:03:41 10° WNW 23:07:44 52° SSW 23:08:33 44° S
STARLINK-1203 3.8 23:03:51 10° WSW 23:08:03 73° NNW 23:12:16 10° ENE
STARLINK-1241 3.8 23:05:00 10° WSW 23:09:09 73° NNW 23:13:18 10° ENE
Cosmos 1992 Rocket 4.5 23:08:31 32° SSE 23:10:22 45° ESE 23:15:20 10° NE
COSMOS 2487 4.0 23:07:20 10° N 23:10:26 29° ENE 23:11:50 22° E
Cosmos 2369 Rocket 2.2 23:07:59 29° SSW 23:10:59 73° ESE 23:16:39 10° NNE
STARLINK-1238 4.4 23:08:01 10° WNW 23:12:06 54° N 23:16:11 10° E
ERBS 4.3 23:09:33 10° W 23:12:32 30° NNW 23:15:32 10° NE
STARLINK-1113 3.8 23:08:40 10° WNW 23:12:41 49° SSW 23:13:19 44° S
SL-8 R/B 3.9 23:09:10 10° W 23:13:47 47° SSW 23:15:05 37° SSE
Cosmos 1943 Rocket 2.2 23:10:23 23° SSW 23:14:01 82° WNW 23:19:40 10° NNE
STARLINK-1239 3.9 23:10:00 10° W 23:14:08 70° NNW 23:18:17 10° ENE
S3M 3.9 23:09:45 10° N 23:15:56 90° W 23:19:11 30° S
STARLINK-1201 4.4 23:13:01 10° WNW 23:17:06 54° N 23:21:11 10° E
NOSS 2-2 (D) 3.7 23:15:09 19° WSW 23:17:35 61° NW 23:21:46 10° NE
STARLINK-1119 3.9 23:13:40 10° WNW 23:17:39 46° SSW 23:18:06 44° SSW
Cosmos 2292 Rocket 3.9 23:17:51 35° SE 23:18:54 43° E 23:22:16 10° NNE
STARLINK-1240 3.9 23:15:00 10° W 23:19:08 68° NNW 23:23:16 10° ENE
Cosmos 1842 4.5 23:18:55 22° SW 23:20:48 35° WNW 23:24:26 10° N
NOSS 3-2 (C) 4.0 23:13:29 10° NW 23:20:56 77° SW 23:26:35 23° SSE
STARLINK-1206 4.3 23:18:00 10° WNW 23:22:05 55° N 23:26:10 10° E
STARLINK-1114 4.0 23:18:39 10° WNW 23:22:36 43° SW 23:22:52 42° SSW
Cosmos 1655 Rocket 4.0 23:20:26 30° S 23:23:44 83° E 23:30:02 10° N
STARLINK-1216 4.0 23:19:58 10° W 23:24:06 66° NNW 23:28:15 10° ENE
Cosmos 1726 2.1 23:21:07 10° N 23:24:50 75° E 23:25:42 50° SSE
ATLAS CENTAUR R/B 3.0 23:25:24 21° ESE 23:25:24 21° ESE 23:28:30 10° ENE
STARLINK-1205 4.3 23:23:00 10° WNW 23:27:05 55° N 23:31:11 10° E
STARLINK-1130 (DARKSAT) 4.1 23:23:40 10° WNW 23:27:34 40° SW 23:27:40 40° SSW
STARLINK-1237 4.0 23:24:58 10° W 23:29:06 64° NNW 23:33:14 10° ENE
ATLAS 3B R/B 3.0 23:25:05 10° NW 23:31:50 67° NE 23:38:47 10° SE
Landsat 4 4.1 23:28:15 10° NNE 23:31:52 48° E 23:32:32 42° SE
STARLINK-1218 4.3 23:27:59 10° WNW 23:32:04 56° N 23:36:10 10° E
NOSS 3-4 (A) 3.8 23:29:50 31° S 23:32:07 45° ESE 23:38:06 10° NE
NOSS 3-4 (C) 3.8 23:29:57 31° S 23:32:13 45° ESE 23:38:12 10° NE
Cosmos 1553 Rocket 4.4 23:26:11 10° NNW 23:32:19 54° W 23:35:37 27° SSW
STARLINK-1084 4.2 23:28:39 10° WNW 23:32:26 37° SW 23:32:26 37° SW
Cosmos 1606 Rocket 4.2 23:29:08 10° N 23:33:18 45° ENE 23:35:04 29° SE
CENTAUR R/B 3.2 23:25:42 10° NW 23:33:40 75° SW 23:39:47 22° SSE
STARLINK-1202 4.1 23:29:58 10° W 23:34:06 63° NNW 23:38:14 10° ENE
SeaSat 1 3.6 23:31:55 10° NNE 23:36:32 41° NW 23:41:08 10° WSW
STARLINK-1212 3.3 23:33:54 10° WNW 23:37:00 62° NNE 23:38:54 21° E
STARLINK-1254 4.3 23:32:58 10° WNW 23:37:04 56° N 23:41:10 10° E
STARLINK-1105 3.3 23:34:22 10° WNW 23:37:27 62° NNE 23:39:21 21° E
STARLINK-1098 4.3 23:33:41 10° WNW 23:37:13 34° SW 23:37:13 34° SW
STARLINK-1234 3.1 23:34:30 10° WNW 23:37:43 73° NNE 23:39:04 31° E
STARLINK-1247 3.3 23:35:15 10° WNW 23:38:21 63° NNE 23:40:17 21° E
STARLINK-1227 3.2 23:35:42 10° WNW 23:38:47 63° NNE 23:40:35 22° E
STARLINK-1226 3.2 23:36:35 10° WNW 23:39:42 64° NNE 23:41:35 21° E
RESURS DK-1 4.4 23:39:42 14° ESE 23:40:08 14° ESE 23:42:25 10° ENE
STARLINK-1215 3.2 23:37:29 10° WNW 23:40:36 64° NNE 23:42:26 22° E
Cosmos 292 Rocket 4.0 23:39:18 29° SW 23:41:45 69° WNW 23:46:37 10° NNE
STARLINK-1231 4.3 23:37:58 10° WNW 23:42:04 57° N 23:46:10 10° E
STARLINK-1217 3.2 23:39:18 10° WNW 23:42:25 65° NNE 23:44:11 23° E
STARLINK-1229 3.2 23:40:11 10° WNW 23:43:18 66° NNE 23:45:02 23° E
STARLINK-1246 4.2 23:39:58 10° W 23:44:04 60° N 23:48:11 10° ENE
STARLINK-1270 3.2 23:41:05 10° WNW 23:44:12 66° NNE 23:45:55 24° E
STARLINK-1189 3.1 23:42:53 10° WNW 23:46:00 68° NNE 23:47:37 25° E
STARLINK-1188 3.1 23:43:48 10° WNW 23:46:56 68° NNE 23:48:31 26° E
STARLINK-1232 4.2 23:42:58 10° WNW 23:47:04 58° N 23:51:10 10° E
Cosmos 1242 Rocket 4.1 23:45:39 22° WSW 23:47:08 29° WNW 23:50:25 10° N
STARLINK-1209 2.9 23:44:17 10° WNW 23:47:32 84° NNE 23:48:28 43° ESE
STARLINK-1235 2.9 23:44:29 10° WNW 23:47:37 78° NNE 23:48:26 45° E
STARLINK-1187 3.0 23:44:54 10° WNW 23:48:00 73° NNE 23:49:04 37° E
YAOGAN 11 4.0 23:46:53 41° S 23:48:24 82° WSW 23:52:46 10° NNW
STARLINK-1224 4.2 23:44:58 10° W 23:49:05 59° N 23:53:12 10° ENE
Cosmos 2263 4.2 23:46:08 28° SSW 23:49:15 83° WNW 23:54:55 10° NNE
STARLINK-1191 3.1 23:46:15 10° WNW 23:49:22 70° NNE 23:50:48 28° E
STARLINK-1221 3.0 23:47:08 10° WNW 23:50:15 71° NNE 23:51:40 29° E
STARLINK-1222 3.0 23:48:03 10° WNW 23:51:10 71° NNE 23:52:32 30° E
Cosmos 1300 4.5 23:48:02 10° NNE 23:51:14 25° ENE 23:53:09 17° ESE
Cosmos 1626 3.9 23:50:51 19° ESE 23:51:50 22° E 23:54:43 10° NE
STARLINK-1208 4.2 23:47:57 10° WNW 23:52:04 59° N 23:56:11 10° E
STARLINK-1214 3.0 23:48:59 10° WNW 23:52:05 72° NNE 23:53:25 31° E
Cosmos 1503 Rocket 4.3 23:46:57 10° NNW 23:52:08 56° WSW 23:54:12 34° SSW
Helios 1A 3.2 23:52:18 40° SSW 23:53:29 56° W 23:57:37 10° NNW
STARLINK-1225 4.2 23:49:57 10° W 23:54:04 58° N 23:58:10 10° ENE
Cosmos 1656 Rocket 3.6 23:51:32 32° SSW 23:54:17 80° ESE 23:59:53 10° NNE
